| time (UTC) | temp F | wind direction | speed MPH | gust MPH | rain 1hr in | rain 24hr in | rain mn in | humidity % | barometer mb |
| 20260502181503 | 47 | 43 | 11.0 | 16.0 | 0.00 | 0.00 | 0.00 | 95 | 1014.3 |
| 20260502163003 | 47 | 53 | 14.0 | 16.0 | 0.00 | 0.00 | 0.00 | 94 | 1013.9 |
| 20260502161504 | 47 | 53 | 11.0 | 15.0 | 0.00 | 0.00 | 0.00 | 94 | 1013.8 |
| 20260502151503 | 48 | 41 | 11.0 | 15.0 | 0.00 | 0.00 | 0.00 | 93 | 1013.8 |
| 20260502123003 | 54 | 27 | 9.0 | 12.0 | 0.00 | 0.00 | 0.00 | 87 | 1013.3 |
| 20260502121503 | 54 | 15 | 6.0 | 12.0 | 0.00 | 0.00 | 0.00 | 88 | 1013.4 |
| 20260502114503 | 54 | 15 | 9.0 | 14.0 | 0.00 | 0.00 | 0.00 | 88 | 1013.3 |
| 20260502113024 | 54 | 15 | 9.0 | 13.0 | 0.00 | 0.00 | 0.00 | 88 | 1013.2 |
| 20260502111503 | 54 | 30 | 7.0 | 12.0 | 0.00 | 0.00 | 0.00 | 89 | 1013.1 |
| 20260502110024 | 52 | 36 | 5.0 | 10.0 | 0.00 | 0.00 | 0.00 | 89 | 1013.0 |
| 20260502104503 | 52 | 31 | 4.0 | 8.0 | 0.00 | 0.00 | 0.00 | 92 | 1012.9 |
| 20260502103003 | 51 | 21 | 4.0 | 8.0 | 0.00 | 0.00 | 0.00 | 93 | 1012.9 |
| 20260502101524 | 50 | 13 | 5.0 | 9.0 | 0.00 | 0.00 | 0.00 | 93 | 1012.9 |
| 20260502091503 | 50 | 359 | 5.0 | 9.0 | 0.00 | 0.00 | 0.00 | 91 | 1012.7 |
| 20260502071503 | 50 | 35 | 0.0 | 3.0 | 0.00 | 0.00 | 0.00 | 85 | 1012.0 |
| 20260502070003 | 50 | 31 | 2.0 | 3.0 | 0.00 | 0.00 | 0.00 | 87 | 1012.0 |
| 20260502064503 | 50 | 279 | 1.0 | 3.0 | 0.00 | 0.00 | 0.00 | 89 | 1011.8 |
| 20260502063003 | 49 | 246 | 0.0 | 2.0 | 0.00 | 0.00 | 0.00 | 90 | 1011.8 |
| 20260502061503 | 48 | 257 | 1.0 | 3.0 | 0.00 | 0.00 | 0.00 | 92 | 1011.7 |
| 20260502060024 | 47 | 296 | 0.0 | 1.0 | 0.00 | 0.00 | 0.00 | 90 | 1011.5 |
| 20260502054503 | 48 | 0 | 0.0 | 0.0 | 0.00 | 0.00 | 0.00 | 89 | 1011.5 |
| 20260502053003 | 48 | 0 | 0.0 | 0.0 | 0.00 | 0.00 | 0.00 | 89 | 1011.7 |
| 20260502051503 | 47 | 285 | 1.0 | 3.0 | 0.00 | 0.00 | 0.00 | 89 | 1011.6 |
| 20260502050003 | 46 | 274 | 1.0 | 3.0 | 0.00 | 0.00 | 0.00 | 90 | 1011.6 |
| 20260502044504 | 46 | 248 | 3.0 | 7.0 | 0.00 | 0.00 | 0.00 | 88 | 1011.4 |
| 20260502043003 | 46 | 243 | 5.0 | 9.0 | 0.00 | 0.00 | 0.00 | 90 | 1011.7 |
| 20260502041503 | 45 | 242 | 1.0 | 3.0 | 0.00 | 0.00 | 0.00 | 90 | 1011.4 |
| 20260502040003 | 45 | 0 | 0.0 | 0.0 | 0.00 | 0.00 | 0.00 | 88 | 1011.5 |
| 20260502034503 | 46 | 242 | 2.0 | 4.0 | 0.00 | 0.00 | 0.00 | 87 | 1011.6 |
| 20260502033024 | 46 | 241 | 4.0 | 5.0 | 0.00 | 0.00 | 0.00 | 87 | 1011.7 |
| 20260502031503 | 47 | 244 | 5.0 | 7.0 | 0.00 | 0.00 | 0.00 | 87 | 1011.7 |
| 20260502030018 | 47 | 246 | 2.0 | 4.0 | 0.00 | 0.00 | 0.00 | 86 | 1011.7 |
| 20260502024503 | 47 | 244 | 4.0 | 7.0 | 0.00 | 0.00 | 0.00 | 85 | 1011.8 |
| 20260502023003 | 48 | 245 | 5.0 | 7.0 | 0.00 | 0.00 | 0.00 | 85 | 1011.9 |
| 20260502021503 | 48 | 243 | 5.0 | 7.0 | 0.00 | 0.00 | 0.00 | 85 | 1012.0 |
| 20260502020004 | 48 | 239 | 6.0 | 8.0 | 0.00 | 0.00 | 0.00 | 85 | 1012.2 |
| 20260502014505 | 48 | 238 | 5.0 | 8.0 | 0.00 | 0.00 | 0.00 | 85 | 1012.3 |
| 20260502013004 | 48 | 238 | 4.0 | 8.0 | 0.00 | 0.00 | 0.00 | 85 | 1012.3 |
| 20260502011505 | 48 | 239 | 6.0 | 9.0 | 0.00 | 0.00 | 0.00 | 86 | 1012.5 |
| 20260502010004 | 48 | 244 | 5.0 | 8.0 | 0.00 | 0.00 | 0.00 | 85 | 1012.5 |
| 20260502004504 | 48 | 249 | 5.0 | 7.0 | 0.00 | 0.00 | 0.00 | 85 | 1012.6 |
| 20260502003025 | 48 | 246 | 4.0 | 7.0 | 0.00 | 0.00 | 0.00 | 85 | 1012.7 |
| 20260502001526 | 48 | 250 | 4.0 | 7.0 | 0.00 | 0.00 | 0.00 | 85 | 1012.8 |
| 20260502000005 | 48 | 257 | 1.0 | 4.0 | 0.00 | 0.00 | 0.00 | 86 | 1013.0 |
| 20260501234505 | 48 | 257 | 0.0 | 2.0 | 0.00 | 0.00 | 0.00 | 86 | 1012.8 |
| 20260501233005 | 48 | 257 | 2.0 | 3.0 | 0.00 | 0.00 | 0.00 | 86 | 1013.0 |
| 20260501231504 | 48 | 256 | 1.0 | 3.0 | 0.00 | 0.00 | 0.00 | 86 | 1013.0 |
| 20260501230005 | 49 | 257 | 3.0 | 5.0 | 0.00 | 0.00 | 0.00 | 84 | 1013.1 |
| 20260501224505 | 50 | 263 | 2.0 | 4.0 | 0.00 | 0.00 | 0.00 | 84 | 1013.2 |
| 20260501223004 | 50 | 274 | 1.0 | 3.0 | 0.00 | 0.00 | 0.00 | 83 | 1013.0 |
| 20260501221504 | 51 | 281 | 0.0 | 3.0 | 0.00 | 0.00 | 0.00 | 83 | 1013.1 |
| 20260501220025 | 51 | 276 | 1.0 | 7.0 | 0.00 | 0.00 | 0.00 | 82 | 1013.2 |
| 20260501214526 | 52 | 273 | 1.0 | 4.0 | 0.00 | 0.00 | 0.00 | 84 | 1013.2 |
| 20260501213004 | 52 | 293 | 1.0 | 7.0 | 0.00 | 0.00 | 0.00 | 84 | 1013.2 |
| 20260501211505 | 53 | 308 | 2.0 | 3.0 | 0.00 | 0.00 | 0.00 | 83 | 1013.1 |
| 20260501210026 | 54 | 345 | 2.0 | 7.0 | 0.00 | 0.00 | 0.00 | 82 | 1013.0 |
| 20260501204505 | 55 | 298 | 1.0 | 5.0 | 0.00 | 0.00 | 0.00 | 80 | 1012.9 |
| 20260501203004 | 55 | 243 | 3.0 | 5.0 | 0.00 | 0.00 | 0.00 | 78 | 1012.8 |
| 20260501201504 | 55 | 232 | 3.0 | 4.0 | 0.00 | 0.00 | 0.00 | 76 | 1012.7 |
| 20260501200005 | 56 | 226 | 4.0 | 7.0 | 0.00 | 0.00 | 0.00 | 74 | 1012.7 |
| 20260501194505 | 57 | 221 | 5.0 | 8.0 | 0.00 | 0.00 | 0.00 | 73 | 1012.8 |
| 20260501193004 | 58 | 221 | 4.0 | 8.0 | 0.00 | 0.00 | 0.00 | 73 | 1012.9 |
| 20260501191504 | 59 | 231 | 5.0 | 7.0 | 0.00 | 0.00 | 0.00 | 71 | 1013.0 |
| 20260501190004 | 59 | 236 | 5.0 | 8.0 | 0.00 | 0.00 | 0.00 | 72 | 1012.9 |
| 20260501184504 | 59 | 235 | 5.0 | 8.0 | 0.00 | 0.00 | 0.00 | 73 | 1013.0 |
| 20260501183004 | 60 | 249 | 4.0 | 8.0 | 0.00 | 0.00 | 0.00 | 74 | 1013.0 |